Date,TemperatureHighF,TemperatureAvgF,TemperatureLowF,DewpointHighF,DewpointAvgF,DewpointLowF,HumidityHigh,HumidityAvg,HumidityLow,PressureMaxIn,PressureMinIn,WindSpeedMaxMPH,WindSpeedAvgMPH,GustSpeedMaxMPH,PrecipitationSumIn
2013-3-1,29.2,26.9,25.1,25.0,21.7,18.0,94,81,66,30.27,30.16,11,5,16,0.01
2013-3-2,20.4,16.6,13.6,14.0,12.4,11.0,87,83,76,30.29,30.26,4,1,6,0.00
2013-3-3,31.9,20.9,6.8,19.0,13.1,4.0,91,74,52,30.26,30.08,9,3,13,0.00
2013-3-4,31.9,27.7,23.2,26.0,22.9,17.0,92,82,69,30.11,29.93,20,10,30,0.01
2013-3-5,32.1,28.8,26.0,27.0,25.6,22.0,94,88,81,30.25,29.96,17,7,22,0.14
2013-3-6,27.1,23.1,14.3,23.0,18.8,12.0,92,83,76,30.42,30.24,14,6,19,0.00
2013-3-7,29.3,18.9,2.2,23.0,15.2,-1.0,91,86,76,30.48,30.41,9,3,13,0.03
2013-3-8,39.9,30.3,19.0,32.0,26.1,17.0,92,84,72,30.45,30.22,15,6,19,0.03
2013-3-9,39.6,37.1,34.0,39.0,35.7,31.0,97,94,88,30.22,29.71,13,6,24,1.29
2013-3-10,40.3,37.6,34.8,40.0,37.0,34.0,98,97,97,29.72,29.54,17,3,20,0.67
2013-3-11,34.6,31.6,27.1,34.0,29.2,23.0,97,91,81,29.90,29.62,16,7,24,0.00
2013-3-12,32.9,27.7,23.5,30.0,22.3,18.0,90,80,68,30.17,29.90,21,10,29,0.01
2013-3-13,32.5,25.0,19.0,19.0,16.4,14.0,83,71,49,30.41,30.17,14,7,20,0.00
2013-3-14,48.1,34.1,22.6,35.0,26.8,17.0,89,76,57,30.36,30.07,11,4,21,0.00
2013-3-15,43.7,36.1,29.6,38.0,32.8,28.0,95,88,80,30.06,29.73,10,3,16,0.00
2013-3-16,34.2,31.9,26.9,34.0,28.7,21.0,100,88,77,30.19,29.77,18,7,25,0.00
2013-3-17,35.0,29.3,23.9,27.0,22.3,16.0,85,75,63,30.21,29.92,16,9,25,0.00
2013-3-18,33.5,27.6,18.5,32.0,23.5,11.0,94,84,71,29.93,29.68,25,10,33,0.09
2013-3-19,29.1,21.1,13.7,19.0,12.6,7.0,80,70,60,30.21,29.91,26,11,26,0.00
2013-3-20,23.4,17.9,12.2,12.0,8.1,4.0,74,66,56,30.26,30.15,23,12,31,0.00
2013-3-21,30.9,20.7,9.6,18.0,11.8,5.0,83,69,52,30.16,30.05,9,3,11,0.00
2013-3-22,39.6,29.0,16.8,25.0,19.3,13.0,85,69,49,30.11,30.03,6,2,9,0.00
2013-3-23,43.1,34.1,24.6,29.0,24.7,22.0,90,70,46,30.12,30.01,8,2,12,0.00
2013-3-24,31.6,29.9,28.5,29.0,28.1,27.0,95,93,88,30.05,29.82,16,6,19,0.02
2013-3-25,35.0,31.0,27.6,28.0,26.0,22.0,95,82,70,30.20,29.90,18,9,25,0.02
2013-3-26,39.7,32.9,26.4,29.0,26.0,23.0,89,76,55,30.32,30.20,12,5,16,0.00
2013-3-27,46.6,37.2,28.3,30.0,26.7,23.0,89,68,47,30.36,30.29,9,2,9,0.00
2013-3-28,51.4,39.3,28.5,35.0,29.5,23.0,86,69,50,30.36,30.26,8,1,11,0.00
2013-3-29,58.1,45.0,32.6,38.0,33.6,28.0,85,66,44,30.30,30.17,7,1,11,0.00
2013-3-30,52.6,45.2,38.0,46.0,39.8,32.0,96,82,71,30.17,29.86,15,5,22,0.02
2013-3-31,49.2,39.5,32.5,43.0,33.5,23.0,97,81,55,30.02,29.83,20,8,26,0.01